This demonstration page uses our WeatherBlox Daily Observations layout. Learn more.

Left ArrowRight Arrow

41.86663, -103.66717

Hourly Observations for December 21, 2020

Temp ( °F °C ) Dew Point ( °F °C ) Humidity (%) Winds ( mph kmh ) Pressure ( in mb ) Visibility ( mi km ) Precip ( " mm )
12:53 am 00:53 Clear 44 6.7 28 -2.2 53 53 NNW 13 20 29.91 1013 10 16 0.00 0.00
1:53 am 01:53 Clear 42 5.6 28 -2.2 58 58 N 9 15 29.95 1014 10 16 0.00 0.00
2:53 am 02:53 Clear 45 7.2 29 -1.7 54 54 NNW 13 20 29.96 1015 10 16 0.00 0.00
3:53 am 03:53 Clear 37 2.8 26 -3.3 65 65 SE 7 11 30.00 1016 10 16 0.00 0.00
4:53 am 04:53 Clear 32 0 24 -4.4 73 73 E 3 6 30.02 1017 10 16 0.00 0.00
5:53 am 05:53 Clear 29 -1.7 23 -5 78 78 ESE 7 11 30.05 1018 10 16 0.00 0.00
6:53 am 06:53 Clear 30 -1.1 23 -5 75 75 E 3 6 30.08 1019 10 16 0.00 0.00
7:53 am 07:53 Sunny 30 -1.1 24 -4.4 79 79 NNE 3 6 30.09 1019 10 16 0.00 0.00
8:53 am 08:53 Sunny 37 2.8 28 -2.2 70 70 SE 3 6 30.09 1019 10 16 0.00 0.00
9:53 am 09:53 Sunny 45 7.2 29 -1.7 54 54 ESE 5 7 30.08 1019 10 16 0.00 0.00
10:53 am 10:53 Sunny 48 8.9 29 -1.7 48 48 ESE 5 7 30.06 1018 10 16 0.00 0.00
11:53 am 11:53 Sunny 52 11.1 28 -2.2 40 40 SE 9 15 30.02 1017 10 16 0.00 0.00
12:53 pm 12:53 Sunny 54 12.2 29 -1.7 38 38 ESE 7 11 30.00 1016 10 16 0.00 0.00
1:53 pm 13:53 Sunny 57 13.9 30 -1.1 36 36 ESE 5 7 29.97 1015 10 16 0.00 0.00
2:53 pm 14:53 Sunny 60 15.6 31 -0.6 33 33 W 13 20 29.95 1014 10 16 0.00 0.00
3:53 pm 15:53 Sunny 58 14.4 31 -0.6 36 36 W 16 26 29.98 1015 10 16 0.00 0.00
4:53 pm 16:53 Clear 55 12.8 30 -1.1 38 38 W 15 24 30.00 1016 10 16 0.00 0.00
5:53 pm 17:53 Clear 51 10.6 30 -1.1 44 44 W 12 19 30.02 1017 10 16 0.00 0.00
6:53 pm 18:53 Clear 47 8.3 29 -1.7 50 50 SSW 9 15 30.03 1017 10 16 0.00 0.00
7:53 pm 19:53 Clear 47 8.3 29 -1.7 50 50 WSW 7 11 30.01 1016 10 16 0.00 0.00
8:53 pm 20:53 Clear 38 3.3 27 -2.8 65 65 ESE 3 6 30.01 1016 10 16 0.00 0.00
9:53 pm 21:53 Clear 35 1.7 26 -3.3 70 70 E 7 11 29.98 1015 10 16 0.00 0.00
10:53 pm 22:53 Clear 35 1.7 25 -3.9 67 67 E 5 7 29.96 1015 10 16 0.00 0.00
11:53 pm 23:53 Clear 33 0.6 24 -4.4 70 70 E 6 9 29.93 1013 10 16 0.00 0.00

Powered by AerisWeather